Homer, AK

6:43 AM AKST on January 17, 2017 (GMT -0900)
Homer

Weather History for PAHO - April, 2013

Change the Weather History Date:

Monday, April 29, 2013

  Actual Average Record
Temperature  
Mean Temperature 35 °F -  
Max Temperature 43 °F 47 °F 64 °F (2005)
Min Temperature 28 °F 32 °F 22 °F (1949)
Degree Days  
Heating Degree Days 30    
Moisture  
Dew Point 22 °F    
Average Humidity 58    
Maximum Humidity 66    
Minimum Humidity 46    
Precipitation  
Precipitation 0.00 in - - ()
Sea Level Pressure  
Sea Level Pressure 30.18 in    
Wind  
Wind Speed 3 mph (WSW)    
Max Wind Speed 14 mph    
Max Gust Speed -    
Visibility 10 miles    
Events      
Averages and records for this station are not official NWS values.
T = Trace of Precipitation, MM = Missing Value Source: NWS Daily Summary

Daily Weather History Graph

Daily Weather History Graph

Search for Another Location

Airport or City:

Trip Planner

Search our weather history database for the weather conditions in past years. The results will help you decide how hot, cold, wet, or windy it might be!

Date:

Astronomy

Apr. 29, 2013 Rise Set
Actual Time 6:09 AM AKDT 9:58 PM AKDT
Civil Twilight 5:18 AM AKDT 10:50 PM AKDT
Nautical Twilight 4:01 AM AKDT 12:09 AM AKDT
Astronomical Twilight 2:35 AM AKDT 1:30 AM AKDT
Moon 2:04 AM AKDT (4/29) 9:15 AM AKDT (4/29)
Length of Visible Light 17h 32m
Length of Day
15h 48m
Waning Gibbous, 79% of the Moon is Illuminated
Apr 29
Waning Gibbous
May 2
Last Quarter
May 9
New
May 17
First Quarter
May 24
Full

Hourly Weather History & Observations

Time (AKDT) Temp. Windchill Dew Point Humidity Pressure Visibility Wind Dir Wind Speed Gust Speed Precip Events Conditions
12:53 AM 32.0 °F 28.7 °F 16.0 °F 52% 30.17 in 10.0 mi NE 3.5 mph - N/A   Clear
1:53 AM 28.9 °F - 18.0 °F 64% 30.19 in 10.0 mi Calm Calm - N/A   Clear
2:53 AM 28.0 °F - 18.0 °F 66% 30.19 in 10.0 mi Calm Calm - N/A   Clear
3:53 AM 28.0 °F - 18.0 °F 66% 30.18 in 10.0 mi Calm Calm - N/A   Clear
4:53 AM 28.0 °F - 18.0 °F 66% 30.19 in 10.0 mi Calm Calm - N/A   Clear
5:53 AM 28.9 °F - 16.0 °F 58% 30.19 in 10.0 mi Calm Calm - N/A   Clear
6:53 AM 28.0 °F - 18.0 °F 66% 30.20 in 10.0 mi Calm Calm - N/A   Clear
7:53 AM 30.9 °F - 19.9 °F 64% 30.19 in 10.0 mi Calm Calm - N/A   Clear
8:53 AM 37.0 °F 34.5 °F 23.0 °F 57% 30.20 in 10.0 mi East 3.5 mph - N/A   Clear
9:53 AM 37.0 °F 34.5 °F 25.0 °F 62% 30.20 in 10.0 mi ESE 3.5 mph - N/A   Clear
10:53 AM 39.0 °F 35.7 °F 21.0 °F 49% 30.19 in 10.0 mi Variable 4.6 mph - N/A   Clear
11:53 AM 39.9 °F 34.5 °F 25.0 °F 55% 30.19 in 10.0 mi SW 8.1 mph - N/A   Clear
12:53 PM 42.1 °F 37.7 °F 24.1 °F 49% 30.19 in 10.0 mi West 6.9 mph - N/A   Mostly Cloudy
1:53 PM 42.1 °F 36.6 °F 23.0 °F 47% 30.19 in 10.0 mi West 9.2 mph - N/A   Clear
2:53 PM 41.0 °F 33.5 °F 28.9 °F 62% 30.19 in 10.0 mi West 13.8 mph - N/A   Clear
3:53 PM 42.1 °F 35.2 °F 26.1 °F 53% 30.18 in 10.0 mi West 12.7 mph - N/A   Partly Cloudy
4:53 PM 41.0 °F 34.3 °F 28.0 °F 60% 30.18 in 10.0 mi WSW 11.5 mph - N/A   Clear
5:53 PM 41.0 °F 35.2 °F 26.1 °F 55% 30.17 in 10.0 mi WSW 9.2 mph - N/A   Clear
6:53 PM 39.9 °F 34.5 °F 24.1 °F 53% 30.16 in 10.0 mi SW 8.1 mph - N/A   Clear
7:53 PM 39.9 °F 35.8 °F 24.1 °F 53% 30.15 in 10.0 mi West 5.8 mph - N/A   Clear
8:53 PM 39.0 °F 35.7 °F 19.9 °F 46% 30.14 in 10.0 mi West 4.6 mph - N/A   Clear
9:53 PM 36.0 °F 33.3 °F 21.9 °F 57% 30.14 in 10.0 mi NE 3.5 mph - N/A   Clear
10:53 PM 33.1 °F - 21.9 °F 64% 30.13 in 10.0 mi Calm Calm - N/A   Clear
11:53 PM 32.0 °F - 21.9 °F 66% 30.12 in 10.0 mi Calm Calm - N/A   Clear